Location: Newark
(16.3678°N, 77.8722°E)
Time: 04:31:04
(UTC+00:00)

S-56A Canister/Altair - Pass Details

Date: 10 December 2019
Orbit: 634 x 2498 km, 38.9° (Epoch: 22 January)

Event Time Altitude Azimuth Distance (km) Brightness Sun altitude
Rises 01:46:54 0° 212° (SSW) 4,597 11.5 8.1°
Reaches altitude 10° 01:49:43 10° 206° (SSW) 3,848 11.2 8.7°
Maximum altitude 01:59:55 51° 133° (SE) 2,501 11.0 10.9°
Drops below altitude 10° 02:13:37 10° 64° (ENE) 5,098 12.3 13.8°
Sets 02:17:56 0° 59° (ENE) 6,167 12.6 14.7°
